Weather History for KNRB - May, 2013

Change the Weather History Date:

Monday, May 20, 2013

  Actual Average Record
Temperature  
Mean Temperature 74 °F -  
Max Temperature 80 °F 82 °F 93 °F (2006)
Min Temperature 70 °F 67 °F 59 °F (2002)
Cooling Degree Days 10    
Growing Degree Days 24 (Base 50)    
Moisture  
Dew Point 71 °F    
Average Humidity 89    
Maximum Humidity 97    
Minimum Humidity 79    
Precipitation  
Precipitation 0.03 in - - ()
Sea Level Pressure  
Sea Level Pressure 30.07 in    
Wind  
Wind Speed 7 mph (SSE)    
Max Wind Speed 13 mph    
Max Gust Speed -    
Visibility 10 miles    
Events Rain    
Averages and records for this station are not official NWS values.
T = Trace of Precipitation, MM = Missing Value Source: NWS Daily Summary

Daily Weather History Graph

Daily Weather History Graph

Search for Another Location

Airport or City:

Trip Planner

Search our weather history database for the weather conditions in past years. The results will help you decide how hot, cold, wet, or windy it might be!

Date:

Astronomy

May. 20, 2013 Rise Set
Actual Time 6:28 AM EDT 8:16 PM EDT
Civil Twilight 6:01 AM EDT 8:42 PM EDT
Nautical Twilight 5:29 AM EDT 9:15 PM EDT
Astronomical Twilight 4:56 AM EDT 9:48 PM EDT
Moon 3:40 PM EDT (5/20) 3:01 AM EDT (5/20)
Length of Visible Light 14h 40m
Length of Day
13h 47m
Waxing Gibbous, 75% of the Moon is Illuminated
May 20
Waxing Gibbous
May 25
Full
May 31
Last Quarter
Jun 8
New
Jun 16
First Quarter

Hourly Weather History & Observations

Time (EDT) Temp. Dew Point Humidity Pressure Visibility Wind Dir Wind Speed Gust Speed Precip Events Conditions
12:24 AM 73.4 °F 69.8 °F 88% 30.09 in 10.0 mi South 6.9 mph - 0.00 in Rain Light Rain
12:52 AM 73.0 °F 70.0 °F 90% 30.06 in 10.0 mi SE 9.2 mph - 0.01 in Rain Light Rain
1:52 AM 71.1 °F 70.0 °F 96% 30.05 in 10.0 mi SW 10.4 mph - 0.01 in Rain Light Rain
2:52 AM 70.0 °F 69.1 °F 97% 30.04 in 10.0 mi South 5.8 mph - 0.00 in Rain Light Rain
3:52 AM 70.0 °F 69.1 °F 97% 30.04 in 10.0 mi SSW 4.6 mph - 0.00 in   Clear
4:52 AM 70.0 °F 69.1 °F 97% 30.04 in 10.0 mi SW 4.6 mph - N/A   Clear
5:52 AM 70.0 °F 69.1 °F 97% 30.05 in 10.0 mi SSW 3.5 mph - N/A   Overcast
6:52 AM 71.1 °F 70.0 °F 96% 30.06 in 10.0 mi South 5.8 mph - 0.01 in   Mostly Cloudy
7:52 AM 73.0 °F 71.1 °F 93% 30.08 in 10.0 mi South 4.6 mph - N/A   Mostly Cloudy
8:52 AM 73.9 °F 72.0 °F 93% 30.09 in 8.0 mi SSE 8.1 mph - N/A   Overcast
9:52 AM 75.0 °F 73.0 °F 94% 30.10 in 10.0 mi SSE 8.1 mph - N/A   Overcast
10:52 AM 77.0 °F 72.0 °F 84% 30.11 in 10.0 mi SSE 12.7 mph - N/A   Overcast
11:52 AM 78.1 °F 72.0 °F 81% 30.11 in 10.0 mi SSE 8.1 mph - N/A   Overcast
12:52 PM 79.0 °F 72.0 °F 79% 30.09 in 10.0 mi SSE 8.1 mph - N/A   Overcast
1:52 PM 78.1 °F 72.0 °F 81% 30.09 in 10.0 mi SE 6.9 mph - N/A   Overcast
2:52 PM 77.0 °F 72.0 °F 84% 30.08 in 10.0 mi SE 9.2 mph - N/A   Overcast
3:36 PM 77.0 °F 71.6 °F 83% 30.06 in 10.0 mi ESE 10.4 mph - 0.00 in Rain Light Rain
3:46 PM 77.0 °F 71.6 °F 83% 30.06 in 10.0 mi SE 11.5 mph - 0.00 in   Overcast
3:52 PM 77.0 °F 71.1 °F 82% 30.05 in 10.0 mi SE 10.4 mph - 0.00 in   Overcast
4:52 PM 79.0 °F 72.0 °F 79% 30.05 in 10.0 mi ESE 9.2 mph - N/A   Mostly Cloudy
5:52 PM 78.1 °F 71.1 °F 79% 30.05 in 10.0 mi SE 11.5 mph - N/A   Mostly Cloudy
6:52 PM 77.0 °F 71.1 °F 82% 30.04 in 10.0 mi SE 10.4 mph - N/A   Mostly Cloudy
7:52 PM 75.0 °F 71.1 °F 87% 30.05 in 10.0 mi SSE 6.9 mph - N/A   Mostly Cloudy
8:52 PM 73.9 °F 71.1 °F 91% 30.07 in 10.0 mi South 5.8 mph - N/A   Mostly Cloudy
9:52 PM 73.0 °F 71.1 °F 93% 30.08 in 10.0 mi South 4.6 mph - N/A   Mostly Cloudy
10:52 PM 73.0 °F 71.1 °F 93% 30.08 in 10.0 mi Calm Calm - N/A   Mostly Cloudy
11:52 PM 71.1 °F 70.0 °F 96% 30.06 in 10.0 mi Calm Calm - N/A   Scattered Clouds